CW3081 Weather Reports


time (UTC)temp
C
wind
direction
speed
KPH
gust
KPH
rain 1hr
cm
rain 24hr
cm
rain mn
cm
humidity
%
barometer
mb
20260506011544 16 0 0.0 1.6 0.00 0.00 0.00 89 1007.8
20260506010046 16 0 0.0 0.0 0.00 0.00 0.00 91 1007.9
20260506004549 16 0 0.0 0.0 0.00 0.00 0.00 91 1007.9
20260506003047 16 0 0.0 0.0 0.00 0.00 0.00 90 1007.9
20260506001546 16 0 0.0 1.6 0.00 0.00 0.00 89 1007.9
20260506000044 17 0 0.0 1.6 0.00 0.00 0.00 87 1008.0
20260505234548 18 0 0.0 1.6 0.00 0.00 0.00 83 1008.3
20260505233045 19 240 1.6 4.8 0.00 0.00 0.00 74 1007.8
20260505231557 19 232 1.6 3.2 0.00 0.00 0.00 73 1007.7
20260505230055 18 219 0.0 3.2 0.00 0.00 0.00 75 1008.0
20260505224544 18 187 0.0 1.6 0.00 0.00 0.00 77 1008.0
20260505223048 17 220 0.0 1.6 0.00 0.00 0.00 79 1008.2
20260505221548 17 195 0.0 0.0 0.00 0.00 0.00 81 1008.5
20260505220047 17 0 0.0 1.6 0.00 0.00 0.00 83 1008.6
20260505214550 17 0 0.0 1.6 0.00 0.00 0.00 81 1008.8
20260505213056 18 221 3.2 8.0 0.00 0.00 0.00 75 1008.2
20260505211547 20 240 3.2 6.4 0.00 0.00 0.00 65 1009.6
20260505210055 21 219 3.2 8.0 0.00 0.00 0.00 60 1009.1
20260505204554 21 251 1.6 9.7 0.00 0.00 0.00 59 1009.1
20260505203045 22 237 3.2 9.7 0.00 0.00 0.00 56 1009.0
20260505201547 22 228 3.2 9.7 0.00 0.00 0.00 56 1009.1
20260505200044 22 236 3.2 9.7 0.00 0.00 0.00 55 1009.0
20260505194546 22 226 3.2 14.5 0.00 0.00 0.00 57 1009.4
20260505193044 22 187 3.2 8.0 0.00 0.00 0.00 60 1009.3
20260505191607 22 238 4.8 9.7 0.00 0.00 0.00 58 1009.6
20260505190050 21 214 4.8 9.7 0.00 0.00 0.00 61 1010.0
20260505184543 21 249 3.2 12.9 0.00 0.00 0.00 63 1009.9
20260505183049 20 259 1.6 4.8 0.00 0.00 0.00 67 1010.6
20260505181548 20 151 1.6 6.4 0.00 0.00 0.00 67 1010.3
20260505180100 19 167 0.0 3.2 0.00 0.00 0.00 68 1010.3
20260505174552 19 222 1.6 6.4 0.00 0.00 0.00 66 1010.0
20260505173046 19 213 1.6 4.8 0.00 0.00 0.00 67 1010.2
20260505171550 18 231 1.6 4.8 0.00 0.00 0.00 70 1010.7
20260505170046 18 0 0.0 0.0 0.00 0.00 0.00 73 1010.6
20260505164543 18 0 0.0 0.0 0.00 0.00 0.00 74 1011.7
20260505163042 18 0 0.0 0.0 0.00 0.00 0.00 73 1012.1
20260505161550 18 0 0.0 0.0 0.00 0.00 0.00 72 1012.4
20260505153045 18 217 0.0 3.2 0.00 0.00 0.00 71 1012.8
20260505151546 18 243 1.6 6.4 0.00 0.00 0.00 72 1012.6
20260505124557 -17 0.0 0.0 0.00 0.00 0.00 1011.5
20260505123059 -17 0.0 0.0 0.00 0.00 0.00 1011.5
20260505121552 -17 0.0 0.0 0.00 0.00 0.00 1011.5
20260505120051 -17 0.0 0.0 0.00 0.00 0.00 1011.5
20260505114546 -17 0.0 0.0 0.00 0.00 0.00 1011.4
20260505113049 -17 0.0 0.0 0.00 0.00 0.00 1010.9
20260505111543 -17 0.0 0.0 0.00 0.00 0.00 1010.8
20260505101605 13 0 0.0 1.6 0.00 0.00 0.00 80 1010.6
20260505100100 13 0 0.0 0.0 0.00 0.00 0.00 78 1010.4
20260505094549 14 0 0.0 1.6 0.00 0.00 0.00 77 1010.4
20260505093059 15 0 0.0 0.0 0.00 0.00 0.00 75 1010.3
20260505091544 15 0 0.0 0.0 0.00 0.00 0.00 72 1010.3
20260505090045 15 0 0.0 0.0 0.00 0.00 0.00 71 1010.1
20260505084541 15 0 0.0 0.0 0.00 0.00 0.00 70 1010.2
20260505083043 16 224 0.0 1.6 0.00 0.00 0.00 70 1010.2
20260505081601 16 0 0.0 1.6 0.00 0.00 0.00 69 1010.0
20260505080059 16 0 0.0 1.6 0.00 0.00 0.00 69 1009.8
20260505074547 16 0 0.0 1.6 0.00 0.00 0.00 68 1010.0
20260505073047 16 224 0.0 1.6 0.00 0.00 0.00 68 1010.0
20260505071551 16 0 0.0 1.6 0.00 0.00 0.00 68 1010.2
20260505070045 16 0 0.0 1.6 0.00 0.00 0.00 67 1010.3
20260505064546 16 0 0.0 0.0 0.00 0.00 0.00 67 1010.6
20260505063050 16 0 0.0 0.0 0.00 0.00 0.00 67 1010.8
20260505061546 16 0 0.0 0.0 0.00 0.00 0.00 66 1010.9
20260505060046 17 0 0.0 0.0 0.00 0.00 0.00 65 1011.0
20260505054547 17 0 0.0 0.0 0.00 0.00 0.00 64 1011.1
20260505053046 17 0 0.0 0.0 0.00 0.00 0.00 64 1011.1
20260505051547 17 0 0.0 0.0 0.00 0.00 0.00 63 1010.9
20260505041541 18 0 0.0 0.0 0.00 0.00 0.00 59 1010.6
20260505040042 18 219 0.0 1.6 0.00 0.00 0.00 58 1010.8
20260505034548 19 0 0.0 1.6 0.00 0.00 0.00 58 1010.7
20260505033043 19 0 0.0 1.6 0.00 0.00 0.00 56 1010.6
20260505031548 19 219 0.0 1.6 0.00 0.00 0.00 55 1010.5
20260505030043 20 219 0.0 1.6 0.00 0.00 0.00 55 1010.4
20260505024551 20 0 0.0 1.6 0.00 0.00 0.00 55 1010.5
20260505023051 20 205 0.0 1.6 0.00 0.00 0.00 55 1010.3
20260505021545 20 167 0.0 1.6 0.00 0.00 0.00 54 1010.3
20260505020046 20 232 0.0 1.6 0.00 0.00 0.00 54 1010.2
20260505014550 20 238 0.0 1.6 0.00 0.00 0.00 55 1010.0
20260505013047 20 238 0.0 1.6 0.00 0.00 0.00 54 1010.2